Total_Precipitation_Accumulation
0.23 0.20 0.27 0.29 0.26 0.29 0.39 0.38 0.29 0.14 0.13 0.13 0.13 0.14 0.14 0.13 0.13 0.12 0.09 0.08 0.09 0.12 0.15 0.20 0.24 0.27 0.30 0.36 0.46 0.53 0.52 0.59 0.62 0.68 0.76 0.76 0.74 0.78 0.88 1.01 1.08 1.10 1.07 1.00
0.24 0.15 0.20 0.24 0.19 0.19 0.20 0.15 0.13 0.11 0.13 0.15 0.16 0.14 0.14 0.13 0.12 0.13 0.11 0.09 0.10 0.12 0.16 0.22 0.27 0.29 0.33 0.37 0.42 0.50 0.51 0.56 0.58 0.66 0.76 0.78 0.73 0.76 0.87 0.97 1.03 1.04 1.03 1.01
0.44 0.18 0.37 0.40 0.19 0.16 0.16 0.15 0.13 0.15 0.16 0.15 0.15 0.15 0.16 0.15 0.14 0.14 0.12 0.12 0.11 0.14 0.19 0.23 0.28 0.29 0.34 0.36 0.40 0.47 0.49 0.51 0.57 0.65 0.70 0.78 0.76 0.78 0.87 0.96 1.00 1.00 0.96 0.94
0.74 0.54 0.76 0.33 0.13 0.12 0.15 0.16 0.14 0.13 0.12 0.13 0.16 0.17 0.19 0.17 0.17 0.16 0.15 0.17 0.16 0.18 0.21 0.22 0.26 0.25 0.29 0.33 0.42 0.49 0.50 0.47 0.53 0.61 0.64 0.75 0.80 0.81 0.90 0.98 0.95 0.95 0.94 0.90
1.04 0.75 0.36 0.16 0.15 0.19 0.25 0.25 0.17 0.12 0.08 0.08 0.11 0.15 0.19 0.16 0.15 0.16 0.18 0.20 0.20 0.20 0.21 0.21 0.24 0.24 0.24 0.28 0.39 0.48 0.52 0.46 0.48 0.57 0.63 0.71 0.78 0.84 0.90 0.98 0.92 0.90 0.88 0.89
1.15 0.82 0.34 0.18 0.14 0.16 0.25 0.33 0.19 0.13 0.10 0.08 0.12 0.21 0.22 0.17 0.15 0.16 0.16 0.18 0.20 0.19 0.19 0.21 0.24 0.25 0.23 0.25 0.33 0.44 0.51 0.43 0.45 0.52 0.55 0.63 0.71 0.81 0.88 0.88 0.86 0.87 0.83 0.84
0.96 0.71 0.24 0.15 0.16 0.18 0.39 0.42 0.19 0.13 0.12 0.12 0.16 0.20 0.19 0.18 0.19 0.19 0.19 0.18 0.17 0.18 0.19 0.22 0.25 0.24 0.25 0.27 0.29 0.38 0.50 0.46 0.48 0.51 0.54 0.61 0.69 0.73 0.79 0.83 0.82 0.85 0.83 0.81
0.71 0.74 0.34 0.19 0.25 0.40 0.44 0.22 0.14 0.12 0.10 0.10 0.10 0.09 0.10 0.14 0.19 0.22 0.21 0.18 0.18 0.18 0.18 0.19 0.22 0.25 0.27 0.30 0.31 0.37 0.46 0.48 0.52 0.57 0.59 0.63 0.67 0.66 0.68 0.78 0.82 0.83 0.87 0.90
0.57 0.41 0.23 0.20 0.26 0.28 0.21 0.17 0.13 0.11 0.10 0.09 0.08 0.08 0.10 0.14 0.19 0.22 0.21 0.20 0.20 0.19 0.18 0.18 0.20 0.25 0.31 0.35 0.35 0.40 0.45 0.47 0.53 0.60 0.63 0.65 0.63 0.64 0.67 0.74 0.81 0.84 0.86 0.88
0.37 0.22 0.16 0.15 0.16 0.15 0.13 0.12 0.11 0.10 0.10 0.10 0.09 0.08 0.09 0.12 0.17 0.20 0.22 0.21 0.22 0.22 0.20 0.20 0.20 0.23 0.32 0.38 0.37 0.41 0.45 0.46 0.52 0.56 0.63 0.66 0.62 0.59 0.62 0.69 0.80 0.81 0.82 0.81
0.26 0.15 0.14 0.14 0.12 0.11 0.10 0.09 0.09 0.09 0.07 0.08 0.08 0.09 0.10 0.11 0.16 0.21 0.23 0.23 0.22 0.24 0.22 0.21 0.22 0.25 0.33 0.37 0.38 0.42 0.42 0.42 0.46 0.48 0.59 0.69 0.68 0.63 0.61 0.62 0.76 0.84 0.79 0.78
0.19 0.13 0.16 0.15 0.12 0.10 0.10 0.10 0.10 0.10 0.09 0.07 0.08 0.09 0.11 0.11 0.14 0.22 0.26 0.25 0.23 0.24 0.23 0.24 0.26 0.30 0.35 0.38 0.38 0.39 0.40 0.40 0.42 0.46 0.54 0.64 0.67 0.69 0.75 0.73 0.74 0.73 0.72 0.76
0.12 0.10 0.09 0.10 0.10 0.09 0.09 0.09 0.09 0.10 0.11 0.09 0.08 0.09 0.10 0.11 0.13 0.20 0.25 0.26 0.26 0.27 0.27 0.27 0.29 0.32 0.36 0.39 0.40 0.40 0.40 0.41 0.43 0.46 0.51 0.58 0.59 0.60 0.71 0.81 0.84 0.77 0.71 0.72
0.06 0.06 0.07 0.07 0.09 0.10 0.10 0.09 0.07 0.08 0.09 0.09 0.08 0.08 0.08 0.10 0.12 0.19 0.27 0.28 0.27 0.26 0.28 0.30 0.32 0.35 0.39 0.42 0.43 0.42 0.40 0.45 0.49 0.48 0.51 0.57 0.57 0.55 0.58 0.65 0.72 0.76 0.77 0.74
0.05 0.06 0.07 0.06 0.08 0.10 0.12 0.10 0.08 0.08 0.09 0.09 0.08 0.07 0.08 0.11 0.14 0.21 0.28 0.28 0.27 0.25 0.28 0.32 0.35 0.40 0.42 0.46 0.46 0.42 0.43 0.45 0.49 0.49 0.52 0.57 0.57 0.56 0.56 0.57 0.59 0.64 0.72 0.79
0.08 0.08 0.07 0.07 0.08 0.10 0.12 0.12 0.11 0.10 0.10 0.10 0.09 0.09 0.10 0.11 0.14 0.20 0.26 0.30 0.30 0.30 0.32 0.34 0.39 0.46 0.49 0.52 0.50 0.46 0.48 0.55 0.57 0.53 0.54 0.59 0.62 0.62 0.60 0.59 0.61 0.62 0.65 0.72
0.10 0.09 0.08 0.08 0.08 0.09 0.12 0.14 0.12 0.10 0.10 0.11 0.11 0.10 0.10 0.12 0.13 0.16 0.21 0.28 0.32 0.35 0.36 0.39 0.45 0.50 0.54 0.58 0.57 0.54 0.54 0.58 0.64 0.58 0.57 0.64 0.69 0.69 0.66 0.66 0.67 0.65 0.62 0.68
0.09 0.09 0.09 0.09 0.08 0.08 0.10 0.12 0.11 0.09 0.10 0.11 0.11 0.10 0.11 0.14 0.16 0.18 0.22 0.28 0.30 0.30 0.33 0.40 0.49 0.54 0.56 0.62 0.64 0.60 0.59 0.61 0.63 0.62 0.61 0.66 0.72 0.72 0.71 0.72 0.71 0.69 0.66 0.70
0.06 0.07 0.07 0.06 0.06 0.06 0.07 0.09 0.09 0.08 0.09 0.10 0.11 0.13 0.14 0.16 0.18 0.20 0.22 0.25 0.28 0.32 0.36 0.41 0.50 0.52 0.54 0.62 0.69 0.65 0.64 0.68 0.70 0.70 0.65 0.72 0.76 0.75 0.74 0.73 0.73 0.69 0.69 0.69
0.06 0.06 0.06 0.06 0.05 0.05 0.06 0.07 0.09 0.08 0.09 0.11 0.13 0.15 0.16 0.16 0.18 0.21 0.23 0.24 0.30 0.41 0.43 0.48 0.51 0.54 0.57 0.59 0.66 0.68 0.72 0.74 0.76 0.77 0.73 0.72 0.75 0.80 0.78 0.76 0.75 0.73 0.73 0.72
0.08 0.08 0.08 0.08 0.07 0.06 0.06 0.07 0.10 0.11 0.10 0.13 0.15 0.17 0.18 0.18 0.19 0.22 0.24 0.24 0.27 0.37 0.43 0.52 0.56 0.60 0.61 0.64 0.69 0.73 0.78 0.78 0.80 0.84 0.83 0.81 0.80 0.83 0.81 0.80 0.79 0.76 0.74 0.74
0.12 0.12 0.12 0.11 0.10 0.09 0.08 0.09 0.11 0.13 0.14 0.16 0.17 0.18 0.18 0.18 0.20 0.21 0.24 0.28 0.31 0.41 0.48 0.53 0.61 0.69 0.73 0.74 0.70 0.75 0.80 0.81 0.82 0.85 0.86 0.84 0.84 0.86 0.84 0.83 0.84 0.79 0.74 0.73
0.17 0.17 0.16 0.15 0.13 0.11 0.10 0.11 0.13 0.16 0.18 0.19 0.20 0.20 0.21 0.21 0.23 0.26 0.29 0.30 0.35 0.46 0.54 0.60 0.70 0.79 0.83 0.76 0.72 0.76 0.81 0.82 0.83 0.86 0.89 0.86 0.85 0.87 0.87 0.86 0.84 0.81 0.78 0.75
0.20 0.21 0.20 0.18 0.16 0.15 0.15 0.16 0.16 0.20 0.23 0.24 0.25 0.25 0.27 0.26 0.26 0.29 0.34 0.39 0.44 0.54 0.60 0.68 0.78 0.83 0.86 0.79 0.76 0.79 0.83 0.83 0.82 0.86 0.89 0.89 0.90 0.90 0.88 0.87 0.87 0.81 0.75 0.73
0.23 0.22 0.21 0.21 0.21 0.22 0.21 0.21 0.21 0.24 0.27 0.28 0.28 0.29 0.31 0.33 0.34 0.35 0.37 0.42 0.49 0.56 0.62 0.69 0.77 0.83 0.85 0.83 0.80 0.83 0.85 0.86 0.88 0.92 0.93 0.93 0.92 0.91 0.89 0.84 0.82 0.80 0.76 0.72
0.26 0.26 0.26 0.26 0.27 0.27 0.27 0.26 0.28 0.29 0.30 0.31 0.31 0.32 0.35 0.37 0.39 0.41 0.43 0.47 0.53 0.59 0.62 0.67 0.74 0.81 0.84 0.84 0.83 0.84 0.86 0.90 0.93 0.91 0.88 0.89 0.88 0.88 0.86 0.82 0.77 0.75 0.74 0.71
0.32 0.31 0.30 0.31 0.32 0.32 0.33 0.32 0.34 0.36 0.36 0.37 0.38 0.37 0.38 0.40 0.42 0.44 0.47 0.51 0.55 0.60 0.64 0.68 0.74 0.80 0.84 0.87 0.89 0.90 0.90 0.89 0.89 0.89 0.89 0.87 0.84 0.84 0.81 0.79 0.77 0.74 0.72 0.70